[[{"header":{"parameterUnit":"m.s-1","parameterCategory":1,"la1":30.2991,"la2":30.254,"lo1":-89.0895,"lo2":-89.0444,"dy":0.0017,"dx":0.0017,"nx":28,"ny":28,"refTime":"2023-04-06T21:00:00:Z","depth":0,"parameterNumber":2,"parameterNumberName":"U-component_of_WINDS"},"data":[0,0,0,0,0,0,0,0,0,0,0,0,0,0,0,0,0,0,0,0,0,0,0,0,0,0,0,0,0,0,0,0,0,0,0,0,0,0,0,0,0,0,0,0,0,0,0,0,0,0,0,0,0,0,0,0,0,0,-4.1725,-4.1726,0,-4.1867,-4.1869,-4.187,-4.185,-4.1847,-4.1845,-4.1843,-4.1992,-4.1998,-4.2004,0,0,0,0,0,0,0,0,0,0,0,0,0,-4.1441,-4.1446,-4.1724,-4.1726,-4.1728,-4.1867,-4.1869,-4.1871,-4.185,-4.1847,-4.1844,-4.1842,-4.199,-4.1997,-4.2005,0,0,0,0,0,0,0,0,0,0,0,0,0,-4.1572,-4.1448,-4.1724,-4.1734,-4.1737,-4.1866,-4.1869,-4.1871,-4.1851,-4.1847,-4.1844,-4.184,-4.1987,-4.1996,-4.2006,-4.2135,0,0,-4.2034,-4.2038,0,0,0,0,0,0,0,0,-4.1564,-4.1582,-4.1731,-4.1734,-4.1737,-4.1837,-4.1823,-4.196,-4.1852,-4.1808,-4.1843,-4.1839,-4.1943,-4.1956,-4.1991,-4.2142,-4.2148,-4.2035,-4.204,-4.2044,-4.2047,0,0,0,0,0,0,0,-4.1555,-4.1576,-4.1781,-4.1733,-4.1737,-4.1734,-4.1749,-4.1849,-4.1894,-4.1811,-4.181,-4.1827,-4.1944,-4.1982,-4.1994,-4.215,-4.2035,-4.2043,-4.2049,-4.2052,-4.2419,-4.2423,0,0,0,0,0,0,-4.1543,-4.1568,-4.1776,-4.1785,-4.164,-4.1742,-4.1758,-4.1808,-4.1893,-4.1902,-4.183,-4.1826,-4.1968,-4.1983,-4.1999,-4.2158,-4.2044,-4.2053,-4.2058,-4.2415,-4.242,-4.2424,0,0,0,0,0,0,-4.1537,-4.1561,-4.1771,-4.1677,-4.1703,-4.1751,-4.1807,-4.1813,-4.185,-4.1907,-4.1915,-4.186,-4.1966,-4.1986,-4.2102,-4.2162,-4.2057,-4.2066,-4.241,-4.2416,-4.2422,-4.2474,0,0,0,0,0,0,-4.1529,-4.1559,-4.1607,-4.1678,-4.1708,-4.1869,-4.1811,-4.1819,-4.1866,-4.1862,-4.1937,-4.1946,-4.1964,-4.2088,-4.2111,-4.2173,-4.2073,-4.2404,-4.2413,-4.242,-4.2467,-4.2481,-4.2494,0,0,0,0,0,-4.1518,-4.1616,-4.1609,-4.1635,-4.1768,-4.1872,-4.189,-4.1908,-4.1871,-4.1921,-4.1958,-4.1944,-4.2153,-4.21,-4.2126,-4.2192,-4.2401,-4.241,-4.2419,-4.2461,-4.2479,-4.2493,0,0,0,0,0,0,-4.1551,-4.1625,-4.1619,-4.1742,-4.1801,-4.1868,-4.1931,-4.1925,-4.1996,-4.1989,-4.201,-4.2028,-4.2145,-4.218,-4.212,-4.2323,-4.2272,-4.2287,-4.2295,-4.2312,-4.2325,-4.2313,-4.2081,0,0,0,0,0,-4.1573,-4.1649,-4.1711,-4.1813,-4.1843,-4.1883,-4.1928,-4.1938,-4.2,-4.2025,-4.207,-4.2133,-4.2213,-4.2265,-4.2341,-4.2474,-4.2491,-4.2532,-4.2545,-4.2556,-4.2568,-4.2643,-4.2663,-4.2455,-4.2455,-4.2455,0,0,-4.1617,-4.1668,-4.1714,-4.1821,-4.1868,-4.1949,-4.1903,-4.199,-4.2051,-4.2039,-4.215,-4.2187,-4.2258,-4.2383,-4.244,-4.2416,-4.263,-4.2568,-4.2576,-4.2582,-4.2655,-4.2675,-4.2692,-4.2461,-4.246,-4.2459,0,0,-4.174,-4.1786,-4.1877,-4.1926,-4.1997,-4.2024,-4.2046,-4.2116,-4.2139,-4.2252,-4.2245,-4.232,-4.2456,-4.2508,-4.2552,-4.2701,-4.2691,-4.2726,-4.2794,-4.2867,-4.2883,-4.2898,-4.2951,-4.297,-4.2738,-4.2738,-4.2738,0,-4.1787,-4.1906,-4.1925,-4.2013,-4.2062,-4.2055,-4.215,-4.2196,-4.229,-4.2325,-4.2296,-4.247,-4.2518,-4.2656,-4.2693,-4.2729,-4.2756,-4.2715,-4.2879,-4.2894,-4.2908,-4.2959,-4.298,-4.2742,-4.2741,-4.2741,-4.2741,0,-4.1961,-4.2045,-4.2111,-4.2201,-4.2258,-4.2348,-4.2383,-4.2438,-4.2444,-4.2475,-4.2592,-4.2649,-4.2738,-4.2773,-4.2779,-4.2914,-4.2896,-4.2874,-4.2822,-4.2931,-4.298,-4.3,-4.2747,-4.2746,-4.2745,-4.2744,0,0,-4.2104,-4.2207,-4.2231,-4.2273,-4.2354,-4.242,-4.2513,-4.26,-4.2648,-4.2715,-4.2794,-4.2912,-4.2893,-4.2943,-4.2956,-4.3021,-4.3137,-4.2991,-4.2993,-4.3016,-4.329,-4.3306,-4.3328,-4.3132,-4.3136,-4.3139,-4.3284,0,-4.2235,-4.2396,-4.2418,-4.2562,-4.2641,-4.2639,-4.272,-4.278,-4.2812,-4.2886,-4.2922,-4.3006,-4.2973,-4.3004,-4.3068,-4.3109,-4.3192,-4.3099,-4.3207,-4.3211,-4.3187,-4.3354,-4.3369,-4.3503,-4.3304,-4.3307,-4.3309,0,-4.2407,-4.2478,-4.263,-4.2703,-4.2738,-4.281,-4.2893,-4.2963,-4.3033,-4.3052,-4.3111,-4.3118,-4.3217,-4.3163,-4.3301,-4.3238,-4.3284,-4.3312,-4.3318,-4.3327,-4.3265,-4.3367,-4.3546,-4.3566,-4.3339,-4.3337,-4.3335,0,-4.2496,-4.2631,-4.2739,-4.2776,-4.2864,-4.2915,-4.2955,-4.3021,-4.3074,-4.3148,-4.3183,-4.3268,-4.3314,-4.3382,-4.3412,-4.337,-4.3549,-4.3498,-4.3569,-4.3569,-4.3605,-4.3602,-4.3793,-4.3637,-4.3637,-4.3636,-4.3636,0,-4.2638,-4.2731,-4.2781,-4.2847,-4.2953,-4.2979,-4.3084,-4.3122,-4.3182,-4.3258,-4.3263,-4.3335,-4.3371,-4.345,-4.3475,-4.3586,-4.3608,-4.3627,-4.3632,-4.3626,-4.3623,-4.3655,-4.3646,-4.3642,-4.364,-4.3639,-4.3638,0,-4.2754,-4.2791,-4.2909,-4.2985,-4.3006,-4.308,-4.3146,-4.3212,-4.3246,-4.3342,-4.3367,-4.342,-4.3513,-4.3551,-4.3664,-4.3682,-4.381,-4.3809,-4.3786,-4.3787,-4.3856,-4.3849,-4.4074,-4.4105,-4.3929,-4.393,-4.3932,0,-4.2841,-4.2913,-4.2997,-4.3048,-4.3089,-4.3171,-4.3225,-4.3255,-4.3312,-4.3399,-4.3456,-4.3549,-4.3624,-4.3774,-4.3823,-4.3912,-4.3912,-4.3985,-4.3925,-4.3917,-4.3913,-4.3908,-4.3916,-4.3995,-4.3997,-4.3998,-4.4,0,-4.2993,-4.3009,-4.3085,-4.317,-4.3234,-4.3302,-4.3369,-4.3411,-4.3452,-4.3516,-4.3611,-4.367,-4.3787,-4.388,-4.3972,-4.4016,-4.4016,-4.4019,-4.404,-4.4033,-4.4017,-4.4027,-4.3815,-4.4013,-4.4011,-4.401,-4.401,-4.4009,-4.3097,-4.3162,-4.3231,-4.3317,-4.3371,-4.3434,-4.3501,-4.3544,-4.3623,-4.372,-4.3735,-4.3837,-4.391,-4.4033,-4.4081,-4.4163,-4.4144,-4.4175,-4.4182,-4.4189,-4.4194,-4.4005,-4.418,-4.418,-4.4179,-4.4179,-4.4179,0,-4.3249,-4.3294,-4.3374,-4.3467,-4.3536,-4.3531,-4.3605,-4.3664,-4.3753,-4.3821,-4.3896,-4.4007,-4.4098,-4.4157,-4.425,-4.4305,-4.4307,-4.4328,-4.4323,-4.4334,-4.4205,-4.4177,-4.4324,-4.4324,-4.4324,-4.4324,-4.4324,-4.4324,-4.3335,-4.3445,-4.347,-4.3607,-4.3653,-4.3752,-4.3796,-4.3855,-4.3909,-4.4033,-4.4108,-4.4146,-4.4212,-4.431,-4.4395,-4.441,-4.4444,-4.4466,-4.448,-4.4358,-4.4343,-4.4328,-4.4302,-4.4473,-4.4474,-4.4603,-4.4604,-4.4605]},{"header":{"parameterUnit":"m.s-1","parameterCategory":1,"la1":30.2991,"la2":30.254,"lo1":-89.0895,"lo2":-89.0444,"dy":0.0017,"dx":0.0017,"nx":28,"ny":28,"refTime":"2023-04-06T21:00:00:Z","depth":0,"parameterNumber":3,"parameterNumberName":"V-component_of_WINDS"},"data":[0,0,0,0,0,0,0,0,0,0,0,0,0,0,0,0,0,0,0,0,0,0,0,0,0,0,0,0,0,0,0,0,0,0,0,0,0,0,0,0,0,0,0,0,0,0,0,0,0,0,0,0,0,0,0,0,0,0,2.4962,2.4963,0,2.5099,2.5101,2.5102,2.5164,2.5164,2.5163,2.5163,2.5303,2.5306,2.531,0,0,0,0,0,0,0,0,0,0,0,0,0,2.4753,2.4756,2.4961,2.4963,2.4965,2.5099,2.5101,2.5103,2.5164,2.5163,2.5163,2.5163,2.5301,2.5306,2.5311,0,0,0,0,0,0,0,0,0,0,0,0,0,2.4862,2.4757,2.4961,2.5012,2.5017,2.5099,2.5101,2.5103,2.5164,2.5163,2.5163,2.5163,2.53,2.5306,2.5311,2.5352,0,0,2.5329,2.5332,0,0,0,0,0,0,0,0,2.4856,2.487,2.5002,2.5008,2.5015,2.5114,2.5079,2.5187,2.5164,2.5108,2.5163,2.5163,2.524,2.5251,2.5277,2.5359,2.5365,2.533,2.5333,2.5336,2.5337,0,0,0,0,0,0,0,2.4848,2.4864,2.5016,2.5004,2.5012,2.5028,2.5043,2.5099,2.5174,2.5113,2.5118,2.5133,2.5243,2.5271,2.5281,2.5367,2.5329,2.5335,2.5338,2.534,2.5494,2.5494,0,0,0,0,0,0,2.4832,2.4857,2.5012,2.502,2.4933,2.5032,2.5049,2.5082,2.5173,2.5187,2.5133,2.5136,2.5262,2.5274,2.5286,2.5343,2.5336,2.5341,2.5344,2.5493,2.5494,2.5494,0,0,0,0,0,0,2.4827,2.4845,2.5006,2.494,2.4962,2.5036,2.5073,2.5085,2.5113,2.5189,2.5202,2.5148,2.5262,2.5278,2.5337,2.5348,2.5344,2.5349,2.5492,2.5493,2.5494,2.5455,0,0,0,0,0,0,2.4821,2.4843,2.4859,2.494,2.4965,2.5054,2.5074,2.5088,2.5123,2.5128,2.5206,2.5219,2.5263,2.5327,2.5342,2.5356,2.5353,2.5492,2.5493,2.5494,2.5455,2.5454,2.5453,0,0,0,0,0,2.4814,2.4841,2.4859,2.4878,2.4986,2.5054,2.5068,2.5119,2.5124,2.5141,2.519,2.5217,2.5345,2.5333,2.535,2.5366,2.5491,2.5492,2.5494,2.5456,2.5454,2.5453,0,0,0,0,0,0,2.4758,2.4853,2.4874,2.4928,2.4983,2.5064,2.5087,2.5115,2.5168,2.517,2.523,2.5247,2.5301,2.534,2.5325,2.5413,2.542,2.5425,2.5386,2.5385,2.5384,2.5374,2.5358,0,0,0,0,0,2.4752,2.48,2.488,2.492,2.4947,2.5012,2.5043,2.5078,2.5136,2.516,2.5213,2.5268,2.5322,2.5355,2.5408,2.5461,2.5481,2.5481,2.548,2.5479,2.5482,2.5516,2.5518,2.5499,2.5499,2.5499,0,0,2.4741,2.4798,2.4824,2.4911,2.4957,2.5005,2.5031,2.508,2.5117,2.5167,2.5226,2.5268,2.5334,2.5391,2.5419,2.5424,2.5492,2.548,2.5479,2.5483,2.5518,2.552,2.5521,2.55,2.5499,2.5499,0,0,2.4744,2.4792,2.4833,2.4879,2.495,2.4994,2.5004,2.5082,2.5112,2.5172,2.5212,2.5257,2.5346,2.5393,2.5429,2.5455,2.5482,2.547,2.5465,2.5497,2.5499,2.55,2.5512,2.5515,2.5473,2.5473,2.5473,0,2.4721,2.4795,2.4849,2.4898,2.4936,2.4985,2.5028,2.507,2.5154,2.5179,2.5185,2.5302,2.5349,2.5419,2.5426,2.5453,2.5467,2.5461,2.5494,2.5496,2.5499,2.551,2.5514,2.5472,2.5472,2.5472,2.5472,0,2.4764,2.4815,2.4839,2.4921,2.4962,2.5007,2.5069,2.5104,2.5136,2.518,2.5243,2.5303,2.537,2.539,2.542,2.5465,2.5467,2.5482,2.5492,2.5498,2.551,2.5515,2.5469,2.547,2.547,2.5471,0,0,2.4734,2.4848,2.4856,2.4895,2.4979,2.502,2.5068,2.5135,2.5165,2.5222,2.5265,2.5342,2.5359,2.5399,2.5435,2.5464,2.5484,2.5477,2.5479,2.5477,2.554,2.5529,2.5533,2.5503,2.5504,2.5505,2.5535,0,2.475,2.4839,2.4892,2.496,2.5009,2.5059,2.5102,2.5158,2.5201,2.525,2.5297,2.5352,2.5368,2.5393,2.5424,2.5475,2.5497,2.5473,2.5545,2.5546,2.5527,2.5539,2.5526,2.5551,2.554,2.5541,2.5541,0,2.478,2.4838,2.4911,2.4993,2.5016,2.5053,2.5121,2.5166,2.5232,2.5262,2.5309,2.5347,2.5401,2.5407,2.5484,2.5467,2.5499,2.5529,2.5532,2.554,2.5544,2.5549,2.5561,2.5565,2.5549,2.5548,2.5548,0,2.4753,2.485,2.4907,2.4939,2.5034,2.506,2.5101,2.5167,2.5205,2.5265,2.5291,2.5355,2.539,2.544,2.5495,2.5493,2.5568,2.5577,2.5595,2.5594,2.5608,2.5607,2.5627,2.5628,2.5628,2.5628,2.5627,0,2.4766,2.4809,2.4897,2.4932,2.4983,2.5044,2.5093,2.5138,2.5197,2.5243,2.5289,2.5331,2.5401,2.5452,2.5495,2.5555,2.557,2.5596,2.5607,2.5592,2.5589,2.5615,2.5615,2.5629,2.5628,2.5628,2.5628,0,2.4744,2.4804,2.487,2.4957,2.498,2.5014,2.5088,2.5125,2.5172,2.523,2.5247,2.532,2.5383,2.5443,2.5527,2.5556,2.5616,2.563,2.5594,2.56,2.5616,2.5614,2.5653,2.5663,2.5656,2.5656,2.5656,0,2.4748,2.4783,2.4874,2.4909,2.495,2.5004,2.5045,2.5107,2.5147,2.5227,2.5255,2.5322,2.5379,2.5478,2.5539,2.5604,2.5621,2.563,2.5631,2.5616,2.5623,2.5621,2.5626,2.5629,2.5628,2.5628,2.5628,0,2.475,2.478,2.4836,2.4904,2.4951,2.5007,2.5065,2.5091,2.5164,2.5207,2.5274,2.5318,2.5405,2.5472,2.5545,2.5588,2.5621,2.5628,2.5636,2.5621,2.56,2.5614,2.5592,2.5626,2.5627,2.5627,2.5627,2.5627,2.4743,2.4778,2.4848,2.4911,2.4961,2.5015,2.5055,2.5109,2.5165,2.5241,2.5275,2.5342,2.5411,2.5513,2.5556,2.561,2.5618,2.5629,2.5632,2.5634,2.5632,2.5591,2.5624,2.5624,2.5624,2.5624,2.5624,0,2.4749,2.4798,2.4855,2.4935,2.4985,2.5013,2.508,2.5119,2.5178,2.524,2.5296,2.5374,2.5439,2.5507,2.5577,2.5608,2.5625,2.5624,2.5623,2.5633,2.562,2.5607,2.561,2.561,2.561,2.561,2.561,2.561,2.4758,2.4819,2.4857,2.4945,2.4994,2.5061,2.5097,2.5148,2.5198,2.5282,2.5338,2.5382,2.5447,2.5523,2.5586,2.5604,2.5628,2.5624,2.5646,2.5633,2.5633,2.5634,2.5622,2.5628,2.5628,2.5655,2.5655,2.5656]}]]